Regional Weather Roundup
Issued by NWS

Home | Current Version | Previous Version | Text Only | Print | Product List | Glossary Off
Versions: 1 2 3 4 5 6 7 8 9 10 11 12 13 14 15 16 17 18 19 20 21 22 23 24 25 26 27 28 29 30 31 32 33 34 35 36 37 38 39 40 41 42 43 44 45 46 47 48 49 50

000
ASUS43 KLMK 240802
RWRKY
KENTUCKY REGIONAL WEATHER ROUNDUP
NATIONAL WEATHER SERVICE LOUISVILLE KY
400 AM EDT THU AUG 24 2017

NOTE "FAIR" INDICATES FEW OR NO CLOUDS BELOW 12,000 FEET
WITH NO SIGNIFICANT WEATHER AND/OR OBSTRUCTIONS TO VISIBILITY.

KYZ001>023-026-027-061>063-070>075-240900-
WESTERN AND SOUTH CENTRAL KENTUCKY

CITY           SKY/WX    TMP DP  RH WIND       PRES   REMARKS
PADUCAH        CLEAR     57  54  89 CALM      30.03R
HENDERSON      NOT AVBL
OWENSBORO      PTCLDY    61  55  81 N3        30.04R
HOPKINSVILLE   CLEAR     61  56  84 CALM      30.02R
BOWLING GREEN  CLEAR     62  59  90 CALM      30.02R
GLASGOW        PTCLDY    58  58 100 CALM      30.02S
$$

KYZ024-025-028>034-038-045-046-053-240900-
NORTH CENTRAL KENTUCKY

CITY           SKY/WX    TMP DP  RH WIND       PRES   REMARKS
LOUISVILLE/SDF MOCLDY    65  54  67 NW3       30.03R
LOUISVILLE/LOU MOCLDY    60  58  92 CALM      30.03R
FORT KNOX      MOCLDY    57  56  94 CALM      30.02R
$$

KYZ035>037-039>044-047>052-055>060-089>105-240900-
NORTHEAST KENTUCKY

CITY           SKY/WX    TMP DP  RH WIND       PRES   REMARKS
LEXINGTON      MOCLDY    59  55  87 N3        30.03R
COVINGTON      CLEAR     62  55  77 N5        30.03R
FRANKFORT      PTCLDY    58  54  86 CALM      30.02R
$$

KYZ054-064>069-076>088-106>120-240900-
SOUTHEAST KENTUCKY

CITY           SKY/WX    TMP DP  RH WIND       PRES   REMARKS
JACKSON        CLEAR     61  53  75 CALM      30.02S
LONDON         CLEAR     59  56  89 CALM      30.02S
SOMERSET       NOT AVBL
MIDDLESBORO    CLEAR     60  60  99 CALM      30.02S
MONTICELLO     FOG       57  56  96 NE10      30.04S VSB 1/2
$$





USA.gov is the U.S. government's official web portal to all federal, state and local government web resources and services.